Palmdale, CA

5:12 PM PST on February 07, 2016 (GMT -0800)
Palmdale Af Plant 42

Weather History for KPMD - August, 2014

Change the Weather History Date:

Monday, August 11, 2014

  Actual Average Record
Temperature  
Mean Temperature 83 °F 82 °F  
Max Temperature 96 °F 98 °F 110 °F (1996)
Min Temperature 70 °F 66 °F 49 °F (1949)
Degree Days  
Heating Degree Days 0 0  
Month to date heating degree days 0 0  
Since 1 June heating degree days 0 7  
Since 1 July heating degree days 0 0  
Cooling Degree Days 18 17  
Month to date cooling degree days 186 193  
Year to date cooling degree days 1411 1171  
Since 1 June cooling degree days 1192 1001  
Growing Degree Days 33 (Base 50)    
Moisture  
Dew Point 44 °F    
Average Humidity 26    
Maximum Humidity 35    
Minimum Humidity 16    
Precipitation  
Precipitation 0.00 in 0.00 in 0.05 in (1965)
Month to date precipitation 0.04 0.03  
Year to date precipitation 3.09 5.45  
Since 1 July precipitation 0.04  
Snow  
Snow 0.00 in - 0.00 in (1973)
Month to date snowfall 0.0  
Since 1 June snowfall 0.0  
Since 1 July snowfall 0.0  
Snow Depth 0.00 in    
Sea Level Pressure  
Sea Level Pressure 29.91 in    
Wind  
Wind Speed 8 mph (SSW)    
Max Wind Speed 23 mph    
Max Gust Speed 27 mph    
Visibility 10 miles    
Events      
T = Trace of Precipitation, MM = Missing Value Source: NWS Daily Summary

Daily Weather History Graph

Daily Weather History Graph

Search for Another Location

Airport or City:

Trip Planner

Search our weather history database for the weather conditions in past years. The results will help you decide how hot, cold, wet, or windy it might be!

Date:

Astronomy

Aug. 11, 2014 Rise Set
Actual Time 6:10 AM PDT 7:44 PM PDT
Civil Twilight 5:43 AM PDT 8:11 PM PDT
Nautical Twilight 5:10 AM PDT 8:43 PM PDT
Astronomical Twilight 4:36 AM PDT 9:17 PM PDT
Moon 8:22 PM PDT (8/11) 7:15 AM PDT (8/11)
Length of Visible Light 14h 28m
Length of Day
13h 34m
Full, 98% of the Moon is Illuminated
Aug 11
Full
Aug 17
Last Quarter
Aug 25
New
Sep 2
First Quarter
Sep 8
Full

Hourly Weather History & Observations

Time (PDT) Temp. Dew Point Humidity Pressure Visibility Wind Dir Wind Speed Gust Speed Precip Events Conditions
12:53 AM 77.0 °F 45.0 °F 32% 29.92 in 10.0 mi SW 3.5 mph - N/A   Clear
1:53 AM 73.9 °F 42.1 °F 32% 29.91 in 10.0 mi ESE 4.6 mph - N/A   Clear
2:53 AM 73.0 °F 42.1 °F 33% 29.90 in 10.0 mi SSE 4.6 mph - N/A   Clear
3:53 AM 73.0 °F 43.0 °F 34% 29.90 in 10.0 mi South 5.8 mph - N/A   Clear
4:53 AM 71.1 °F 43.0 °F 36% 29.90 in 10.0 mi SSW 8.1 mph - N/A   Clear
5:53 AM 71.1 °F 42.1 °F 35% 29.92 in 10.0 mi South 5.8 mph - N/A   Clear
6:53 AM 75.0 °F 42.1 °F 31% 29.92 in 10.0 mi SW 4.6 mph - N/A   Clear
7:53 AM 81.0 °F 39.9 °F 23% 29.94 in 10.0 mi ENE 3.5 mph - N/A   Clear
8:53 AM 82.9 °F 37.9 °F 20% 29.94 in 10.0 mi Calm Calm - N/A   Clear
9:53 AM 87.1 °F 39.0 °F 18% 29.94 in 10.0 mi NNE 4.6 mph - N/A   Clear
10:53 AM 89.1 °F 39.9 °F 18% 29.94 in 10.0 mi Calm Calm - N/A   Clear
11:53 AM 93.0 °F 41.0 °F 16% 29.92 in 10.0 mi Variable 5.8 mph - N/A   Clear
12:53 PM 93.0 °F 44.1 °F 18% 29.91 in 10.0 mi North - - N/A   Mostly Cloudy
1:53 PM 93.0 °F 42.1 °F 17% 29.91 in 10.0 mi SSW 11.5 mph - N/A   Scattered Clouds
2:53 PM 93.0 °F 44.1 °F 18% 29.90 in 10.0 mi Variable 4.6 mph - N/A   Mostly Cloudy
3:53 PM 95.0 °F 46.0 °F 19% 29.87 in 10.0 mi WSW 13.8 mph 21.9 mph N/A   Overcast
4:53 PM 93.0 °F 48.0 °F 21% 29.88 in 10.0 mi WSW 17.3 mph 24.2 mph N/A   Overcast
5:53 PM 91.0 °F 48.0 °F 23% 29.87 in 10.0 mi WSW 19.6 mph - N/A   Scattered Clouds
6:53 PM 88.0 °F 46.0 °F 23% 29.88 in 10.0 mi WSW 21.9 mph - N/A   Clear
7:53 PM 84.9 °F 48.0 °F 28% 29.88 in 10.0 mi SW 13.8 mph - N/A   Clear
8:53 PM 82.9 °F 48.0 °F 29% 29.90 in 10.0 mi SW 16.1 mph - N/A   Clear
9:53 PM 82.0 °F 48.0 °F 30% 29.92 in 10.0 mi West 10.4 mph - N/A   Mostly Cloudy
10:53 PM 82.0 °F 48.9 °F 31% 29.92 in 10.0 mi Calm Calm - N/A   Scattered Clouds
11:53 PM 80.1 °F 48.9 °F 34% 29.92 in 10.0 mi South 9.2 mph - N/A   Partly Cloudy